Time,TemperatureF,DewpointF,PressureIn,WindDirection,WindDirectionDegrees,WindSpeedMPH,WindSpeedGustMPH,Humidity,HourlyPrecipIn,Conditions,Clouds,dailyrainin,SoftwareType,DateUTC
2014-07-24 00:00:00,64.9,58.9,30.10,NNE,17,0.0,2.0,81,0.00,,,0.01,Wunderground v.1.15,2014-07-24 03:00:00,
2014-07-24 00:05:00,65.0,59.0,30.09,NNE,16,1.0,2.0,81,0.00,,,0.01,Wunderground v.1.15,2014-07-24 03:05:00,
2014-07-24 00:09:00,64.9,58.9,30.09,NNE,16,0.0,2.0,81,0.00,,,0.01,Wunderground v.1.15,2014-07-24 03:09:00,
2014-07-24 00:14:00,64.9,58.9,30.09,NNE,16,0.0,2.0,81,0.00,,,0.01,Wunderground v.1.15,2014-07-24 03:14:00,
2014-07-24 00:19:00,64.8,58.5,30.10,North,5,0.0,2.0,80,0.00,,,0.01,Wunderground v.1.15,2014-07-24 03:19:00,
2014-07-24 00:25:00,64.7,58.7,30.10,North,6,1.0,2.0,81,0.00,,,0.01,Wunderground v.1.15,2014-07-24 03:25:00,
2014-07-24 00:30:00,64.7,58.7,30.10,North,10,1.0,2.0,81,0.00,,,0.01,Wunderground v.1.15,2014-07-24 03:30:00,
2014-07-24 00:35:00,64.6,58.6,30.10,North,6,2.0,2.0,81,0.00,,,0.01,Wunderground v.1.15,2014-07-24 03:35:00,
2014-07-24 00:39:00,64.5,58.2,30.10,North,7,1.0,2.0,80,0.00,,,0.01,Wunderground v.1.15,2014-07-24 03:39:00,
2014-07-24 00:45:00,64.4,57.7,30.10,North,10,1.0,3.0,79,0.00,,,0.01,Wunderground v.1.15,2014-07-24 03:45:00,
2014-07-24 00:50:00,64.6,57.6,30.10,NNE,17,2.0,2.0,78,0.00,,,0.01,Wunderground v.1.15,2014-07-24 03:50:00,
2014-07-24 00:55:00,64.9,56.8,30.10,NNE,31,4.0,4.0,75,0.00,,,0.01,Wunderground v.1.15,2014-07-24 03:55:00,
2014-07-24 01:00:00,64.9,56.0,30.10,NE,42,4.0,4.0,73,0.00,,,0.01,Wunderground v.1.15,2014-07-24 04:00:00,
2014-07-24 01:05:00,65.0,55.4,30.10,NE,48,4.0,4.0,71,0.00,,,0.01,Wunderground v.1.15,2014-07-24 04:05:00,
2014-07-24 01:10:00,64.9,55.3,30.10,NE,37,4.0,4.0,71,0.00,,,0.01,Wunderground v.1.15,2014-07-24 04:10:00,
2014-07-24 01:19:00,64.8,55.2,30.11,NNE,31,3.0,3.0,71,0.00,,,0.01,Wunderground v.1.15,2014-07-24 04:19:00,
2014-07-24 01:25:00,64.6,55.0,30.11,NE,44,3.0,6.0,71,0.00,,,0.01,Wunderground v.1.15,2014-07-24 04:25:00,
2014-07-24 01:30:00,64.5,55.3,30.11,NNE,21,3.0,3.0,72,0.00,,,0.01,Wunderground v.1.15,2014-07-24 04:30:00,
2014-07-24 01:35:00,64.3,55.1,30.11,NE,36,3.0,3.0,72,0.00,,,0.01,Wunderground v.1.15,2014-07-24 04:35:00,
2014-07-24 01:44:00,64.1,54.9,30.11,NNE,25,3.0,3.0,72,0.00,,,0.00,Wunderground v.1.15,2014-07-24 04:44:00,
2014-07-24 01:50:00,64.0,54.8,30.11,NNE,31,3.0,3.0,72,0.00,,,0.00,Wunderground v.1.15,2014-07-24 04:50:00,
2014-07-24 02:00:00,63.8,55.0,30.10,NE,50,3.0,5.0,73,0.00,,,0.00,Wunderground v.1.15,2014-07-24 05:00:00,
2014-07-24 02:05:00,63.6,55.2,30.11,NE,37,3.0,5.0,74,0.00,,,0.00,Wunderground v.1.15,2014-07-24 05:05:00,
2014-07-24 02:10:00,63.5,54.7,30.11,NE,40,4.0,5.0,73,0.00,,,0.00,Wunderground v.1.15,2014-07-24 05:10:00,
2014-07-24 02:14:00,63.5,54.3,30.11,NNE,33,4.0,5.0,72,0.00,,,0.00,Wunderground v.1.15,2014-07-24 05:14:00,
2014-07-24 02:19:00,63.4,54.2,30.11,NE,48,5.0,5.0,72,0.00,,,0.00,Wunderground v.1.15,2014-07-24 05:19:00,
2014-07-24 02:24:00,63.3,54.1,30.11,NE,48,5.0,5.0,72,0.00,,,0.00,Wunderground v.1.15,2014-07-24 05:24:00,
2014-07-24 02:30:00,63.2,54.0,30.11,ENE,59,5.0,5.0,72,0.00,,,0.00,Wunderground v.1.15,2014-07-24 05:30:00,
2014-07-24 02:35:00,63.0,53.8,30.11,NE,48,5.0,5.0,72,0.00,,,0.00,Wunderground v.1.15,2014-07-24 05:35:00,
2014-07-24 02:40:00,63.0,53.4,30.11,NE,52,5.0,8.0,71,0.00,,,0.00,Wunderground v.1.15,2014-07-24 05:40:00,
2014-07-24 02:44:00,62.9,53.4,30.11,North,360,5.0,8.0,71,0.00,,,0.00,Wunderground v.1.15,2014-07-24 05:44:00,
2014-07-24 02:49:00,62.9,53.0,30.11,NE,39,6.0,6.0,70,0.00,,,0.00,Wunderground v.1.15,2014-07-24 05:49:00,
2014-07-24 02:54:00,62.7,53.2,30.11,NE,44,6.0,10.0,71,0.00,,,0.00,Wunderground v.1.15,2014-07-24 05:54:00,
2014-07-24 03:00:00,62.7,52.8,30.11,NNE,26,7.0,7.0,70,0.00,,,0.00,Wunderground v.1.15,2014-07-24 06:00:00,
2014-07-24 03:05:00,62.5,52.6,30.12,NE,52,7.0,9.0,70,0.00,,,0.00,Wunderground v.1.15,2014-07-24 06:05:00,
2014-07-24 03:09:00,62.5,52.6,30.12,ENE,64,7.0,12.0,70,0.00,,,0.00,Wunderground v.1.15,2014-07-24 06:09:00,
2014-07-24 03:14:00,62.5,52.6,30.12,NNE,21,7.0,12.0,70,0.00,,,0.00,Wunderground v.1.15,2014-07-24 06:14:00,
2014-07-24 03:19:00,62.3,52.4,30.11,ENE,66,5.0,8.0,70,0.00,,,0.00,Wunderground v.1.15,2014-07-24 06:19:00,
2014-07-24 03:24:00,62.2,52.3,30.12,NNE,26,5.0,8.0,70,0.00,,,0.00,Wunderground v.1.15,2014-07-24 06:24:00,
2014-07-24 03:29:00,62.0,52.5,30.11,NE,54,4.0,7.0,71,0.00,,,0.00,Wunderground v.1.15,2014-07-24 06:29:00,
2014-07-24 03:35:00,61.9,52.4,30.12,ENE,64,5.0,7.0,71,0.00,,,0.00,Wunderground v.1.15,2014-07-24 06:35:00,
2014-07-24 03:40:00,61.7,52.2,30.12,NE,46,7.0,7.0,71,0.00,,,0.00,Wunderground v.1.15,2014-07-24 06:40:00,
2014-07-24 03:50:00,61.3,52.2,30.12,NNE,30,5.0,5.0,72,0.00,,,0.00,Wunderground v.1.15,2014-07-24 06:50:00,
2014-07-24 03:55:00,61.2,52.1,30.12,NE,41,4.0,7.0,72,0.00,,,0.00,Wunderground v.1.15,2014-07-24 06:55:00,
2014-07-24 03:59:00,61.1,52.0,30.11,NNE,29,5.0,7.0,72,0.00,,,0.00,Wunderground v.1.15,2014-07-24 06:59:00,
2014-07-24 04:10:00,60.8,51.7,30.11,NE,42,6.0,8.0,72,0.00,,,0.00,Wunderground v.1.15,2014-07-24 07:10:00,
2014-07-24 04:14:00,60.8,51.7,30.12,NE,47,7.0,8.0,72,0.00,,,0.00,Wunderground v.1.15,2014-07-24 07:14:00,
2014-07-24 04:20:00,60.6,51.5,30.12,NE,50,6.0,6.0,72,0.00,,,0.00,Wunderground v.1.15,2014-07-24 07:20:00,
2014-07-24 04:25:00,60.5,51.8,30.12,NE,50,6.0,6.0,73,0.00,,,0.00,Wunderground v.1.15,2014-07-24 07:25:00,
2014-07-24 04:30:00,60.4,51.7,30.12,NE,43,6.0,7.0,73,0.00,,,0.00,Wunderground v.1.15,2014-07-24 07:30:00,
2014-07-24 04:34:00,60.2,51.5,30.12,NE,47,6.0,8.0,73,0.00,,,0.00,Wunderground v.1.15,2014-07-24 07:34:00,
2014-07-24 04:39:00,60.1,51.4,30.12,NE,44,6.0,8.0,73,0.00,,,0.00,Wunderground v.1.15,2014-07-24 07:39:00,
2014-07-24 04:49:00,60.0,51.3,30.13,NE,41,8.0,8.0,73,0.00,,,0.00,Wunderground v.1.15,2014-07-24 07:49:00,
2014-07-24 04:54:00,59.8,51.5,30.13,NE,39,7.0,8.0,74,0.00,,,0.00,Wunderground v.1.15,2014-07-24 07:54:00,
2014-07-24 05:00:00,59.7,51.0,30.13,NE,53,7.0,8.0,73,0.00,,,0.00,Wunderground v.1.15,2014-07-24 08:00:00,
2014-07-24 05:05:00,59.7,51.0,30.13,NE,46,8.0,8.0,73,0.00,,,0.00,Wunderground v.1.15,2014-07-24 08:05:00,
2014-07-24 05:09:00,59.7,51.0,30.13,NE,37,9.0,9.0,73,0.00,,,0.00,Wunderground v.1.15,2014-07-24 08:09:00,
2014-07-24 05:14:00,59.5,51.2,30.13,NE,54,8.0,9.0,74,0.00,,,0.00,Wunderground v.1.15,2014-07-24 08:14:00,
2014-07-24 05:19:00,59.4,51.5,30.13,NE,55,6.0,6.0,75,0.00,,,0.00,Wunderground v.1.15,2014-07-24 08:19:00,
2014-07-24 05:24:00,59.3,51.0,30.13,NE,44,7.0,8.0,74,0.00,,,0.00,Wunderground v.1.15,2014-07-24 08:24:00,
2014-07-24 05:29:00,59.1,51.2,30.13,NE,37,7.0,7.0,75,0.00,,,0.00,Wunderground v.1.15,2014-07-24 08:29:00,
2014-07-24 05:35:00,59.1,50.8,30.13,ENE,58,7.0,7.0,74,0.00,,,0.00,Wunderground v.1.15,2014-07-24 08:35:00,
2014-07-24 05:40:00,59.2,51.3,30.13,NE,46,8.0,8.0,75,0.00,,,0.00,Wunderground v.1.15,2014-07-24 08:40:00,
2014-07-24 05:44:00,59.1,50.8,30.14,NE,41,8.0,8.0,74,0.00,,,0.00,Wunderground v.1.15,2014-07-24 08:44:00,
2014-07-24 05:49:00,59.2,50.9,30.14,NE,52,7.0,8.0,74,0.00,,,0.00,Wunderground v.1.15,2014-07-24 08:49:00,
2014-07-24 05:59:00,59.1,51.2,30.14,NE,50,6.0,6.0,75,0.00,,,0.00,Wunderground v.1.15,2014-07-24 08:59:00,
2014-07-24 06:04:00,58.9,51.3,30.14,NE,54,5.0,7.0,76,0.00,,,0.00,Wunderground v.1.15,2014-07-24 09:04:00,
2014-07-24 06:10:00,58.8,51.2,30.14,NE,56,5.0,5.0,76,0.00,,,0.00,Wunderground v.1.15,2014-07-24 09:10:00,
2014-07-24 06:15:00,58.7,51.2,30.14,NE,49,6.0,6.0,76,0.00,,,0.00,Wunderground v.1.15,2014-07-24 09:15:00,
2014-07-24 06:19:00,58.6,51.1,30.14,ENE,59,6.0,6.0,76,0.00,,,0.00,Wunderground v.1.15,2014-07-24 09:19:00,
2014-07-24 06:24:00,58.4,51.2,30.14,NE,54,5.0,6.0,77,0.00,,,0.00,Wunderground v.1.15,2014-07-24 09:24:00,
2014-07-24 06:29:00,58.1,50.9,30.15,NE,38,5.0,6.0,77,0.00,,,0.00,Wunderground v.1.15,2014-07-24 09:29:00,
2014-07-24 06:34:00,58.1,50.9,30.15,NE,54,5.0,6.0,77,0.00,,,0.00,Wunderground v.1.15,2014-07-24 09:34:00,
2014-07-24 06:39:00,57.9,50.7,30.15,NE,45,5.0,5.0,77,0.00,,,0.00,Wunderground v.1.15,2014-07-24 09:39:00,
2014-07-24 06:45:00,57.8,50.3,30.15,NE,51,5.0,5.0,76,0.00,,,0.00,Wunderground v.1.15,2014-07-24 09:45:00,
2014-07-24 06:50:00,57.8,50.3,30.15,NE,46,6.0,8.0,76,0.00,,,0.00,Wunderground v.1.15,2014-07-24 09:50:00,
2014-07-24 06:54:00,57.8,50.3,30.15,NE,44,6.0,8.0,76,0.00,,,0.00,Wunderground v.1.15,2014-07-24 09:54:00,
2014-07-24 06:59:00,57.8,50.3,30.15,NNE,19,7.0,7.0,76,0.00,,,0.00,Wunderground v.1.15,2014-07-24 09:59:00,
2014-07-24 07:04:00,57.7,50.2,30.15,NE,52,6.0,7.0,76,0.00,,,0.00,Wunderground v.1.15,2014-07-24 10:04:00,
2014-07-24 07:09:00,57.7,50.2,30.16,NE,37,6.0,6.0,76,0.00,,,0.00,Wunderground v.1.15,2014-07-24 10:09:00,
2014-07-24 07:14:00,57.8,50.3,30.16,NE,40,6.0,6.0,76,0.00,,,0.00,Wunderground v.1.15,2014-07-24 10:14:00,
2014-07-24 07:20:00,57.8,50.3,30.16,NE,50,5.0,5.0,76,0.00,,,0.00,Wunderground v.1.15,2014-07-24 10:20:00,
2014-07-24 07:25:00,57.8,49.9,30.16,NE,52,6.0,8.0,75,0.00,,,0.00,Wunderground v.1.15,2014-07-24 10:25:00,
2014-07-24 07:34:00,58.0,50.1,30.16,NE,37,7.0,8.0,75,0.00,,,0.00,Wunderground v.1.15,2014-07-24 10:34:00,
2014-07-24 07:39:00,58.2,50.7,30.17,NE,39,6.0,6.0,76,0.00,,,0.00,Wunderground v.1.15,2014-07-24 10:39:00,
2014-07-24 07:45:00,58.2,50.7,30.16,NE,56,5.0,7.0,76,0.00,,,0.00,Wunderground v.1.15,2014-07-24 10:45:00,
2014-07-24 07:50:00,58.2,50.7,30.17,NE,35,5.0,5.0,76,0.00,,,0.00,Wunderground v.1.15,2014-07-24 10:50:00,
2014-07-24 07:55:00,58.3,50.8,30.16,NNE,29,4.0,5.0,76,0.00,,,0.00,Wunderground v.1.15,2014-07-24 10:55:00,
2014-07-24 08:00:00,58.5,50.2,30.17,NE,45,5.0,5.0,74,0.00,,,0.00,Wunderground v.1.15,2014-07-24 11:00:00,
2014-07-24 08:04:00,58.6,50.7,30.17,NE,42,5.0,5.0,75,0.00,,,0.00,Wunderground v.1.15,2014-07-24 11:04:00,
2014-07-24 08:09:00,58.5,50.2,30.17,NE,52,5.0,5.0,74,0.00,,,0.00,Wunderground v.1.15,2014-07-24 11:09:00,
2014-07-24 08:14:00,58.1,49.9,30.17,NE,42,6.0,6.0,74,0.00,,,0.00,Wunderground v.1.15,2014-07-24 11:14:00,
2014-07-24 08:25:00,58.7,50.4,30.17,NE,41,6.0,6.0,74,0.00,,,0.00,Wunderground v.1.15,2014-07-24 11:25:00,
2014-07-24 08:30:00,59.0,50.4,30.17,NE,41,6.0,9.0,73,0.00,,,0.00,Wunderground v.1.15,2014-07-24 11:30:00,
2014-07-24 08:35:00,59.1,50.1,30.17,NE,47,7.0,9.0,72,0.00,,,0.00,Wunderground v.1.15,2014-07-24 11:35:00,
2014-07-24 08:40:00,59.5,50.8,30.17,NE,54,6.0,6.0,73,0.00,,,0.00,Wunderground v.1.15,2014-07-24 11:40:00,
2014-07-24 08:45:00,59.9,50.8,30.18,NNE,30,4.0,6.0,72,0.00,,,0.00,Wunderground v.1.15,2014-07-24 11:45:00,
2014-07-24 08:50:00,59.4,50.4,30.18,NE,39,4.0,4.0,72,0.00,,,0.00,Wunderground v.1.15,2014-07-24 11:50:00,
2014-07-24 09:00:00,58.7,50.4,30.18,NE,56,4.0,8.0,74,0.00,,,0.00,Wunderground v.1.15,2014-07-24 12:00:00,
2014-07-24 09:05:00,58.7,50.4,30.18,NE,39,4.0,8.0,74,0.00,,,0.00,Wunderground v.1.15,2014-07-24 12:05:00,
2014-07-24 09:10:00,58.9,50.6,30.18,NE,38,4.0,4.0,74,0.00,,,0.00,Wunderground v.1.15,2014-07-24 12:10:00,
2014-07-24 09:15:00,59.3,50.6,30.19,NE,50,5.0,6.0,73,0.00,,,0.00,Wunderground v.1.15,2014-07-24 12:15:00,
2014-07-24 09:20:00,59.6,50.9,30.19,NE,39,7.0,7.0,73,0.00,,,0.00,Wunderground v.1.15,2014-07-24 12:20:00,
2014-07-24 09:25:00,59.6,50.9,30.19,NE,46,6.0,7.0,73,0.00,,,0.00,Wunderground v.1.15,2014-07-24 12:25:00,
2014-07-24 09:35:00,60.2,51.1,30.19,NE,52,5.0,6.0,72,0.00,,,0.00,Wunderground v.1.15,2014-07-24 12:35:00,
2014-07-24 09:40:00,60.5,50.7,30.18,NE,49,5.0,5.0,70,0.00,,,0.00,Wunderground v.1.15,2014-07-24 12:40:00,
2014-07-24 09:45:00,60.8,51.3,30.19,NE,54,5.0,7.0,71,0.00,,,0.00,Wunderground v.1.15,2014-07-24 12:45:00,
2014-07-24 09:54:00,60.6,49.6,30.19,NE,54,7.0,10.0,67,0.00,,,0.00,Wunderground v.1.15,2014-07-24 12:54:00,
2014-07-24 09:59:00,61.1,50.5,30.19,ENE,71,6.0,8.0,68,0.00,,,0.00,Wunderground v.1.15,2014-07-24 12:59:00,
2014-07-24 10:05:00,61.2,50.6,30.19,ENE,58,5.0,8.0,68,0.00,,,0.00,Wunderground v.1.15,2014-07-24 13:05:00,
2014-07-24 10:10:00,61.7,50.6,30.19,NE,50,5.0,5.0,67,0.00,,,0.00,Wunderground v.1.15,2014-07-24 13:10:00,
2014-07-24 10:15:00,61.9,50.4,30.19,NE,34,5.0,5.0,66,0.00,,,0.00,Wunderground v.1.15,2014-07-24 13:15:00,
2014-07-24 10:19:00,61.6,49.7,30.19,NE,38,5.0,6.0,65,0.00,,,0.00,Wunderground v.1.15,2014-07-24 13:19:00,
2014-07-24 10:24:00,61.9,50.0,30.19,NE,45,5.0,9.0,65,0.00,,,0.00,Wunderground v.1.15,2014-07-24 13:24:00,
2014-07-24 10:29:00,62.3,50.8,30.19,ESE,102,5.0,5.0,66,0.00,,,0.00,Wunderground v.1.15,2014-07-24 13:29:00,
2014-07-24 10:35:00,62.2,49.9,30.19,NE,35,5.0,5.0,64,0.00,,,0.00,Wunderground v.1.15,2014-07-24 13:35:00,
2014-07-24 10:40:00,62.3,49.1,30.19,NE,41,6.0,6.0,62,0.00,,,0.00,Wunderground v.1.15,2014-07-24 13:40:00,
2014-07-24 10:44:00,61.7,49.0,30.18,NE,48,7.0,7.0,63,0.00,,,0.00,Wunderground v.1.15,2014-07-24 13:44:00,
2014-07-24 10:49:00,62.0,50.1,30.19,ENE,58,8.0,9.0,65,0.00,,,0.00,Wunderground v.1.15,2014-07-24 13:49:00,
2014-07-24 10:54:00,62.3,50.4,30.18,ESE,104,7.0,9.0,65,0.00,,,0.00,Wunderground v.1.15,2014-07-24 13:54:00,
2014-07-24 10:59:00,62.3,50.0,30.18,NE,52,7.0,10.0,64,0.00,,,0.00,Wunderground v.1.15,2014-07-24 13:59:00,
2014-07-24 11:05:00,62.4,50.5,30.18,NNE,33,7.0,10.0,65,0.00,,,0.00,Wunderground v.1.15,2014-07-24 14:05:00,
2014-07-24 11:10:00,62.5,50.2,30.18,ENE,59,7.0,7.0,64,0.00,,,0.00,Wunderground v.1.15,2014-07-24 14:10:00,
2014-07-24 11:14:00,62.9,50.5,30.19,ENE,58,6.0,9.0,64,0.00,,,0.00,Wunderground v.1.15,2014-07-24 14:14:00,
2014-07-24 11:19:00,63.3,50.9,30.19,NE,40,6.0,6.0,64,0.00,,,0.00,Wunderground v.1.15,2014-07-24 14:19:00,
2014-07-24 11:25:00,63.4,50.1,30.19,NNE,19,6.0,6.0,62,0.00,,,0.00,Wunderground v.1.15,2014-07-24 14:25:00,
2014-07-24 11:30:00,63.5,50.7,30.19,NNE,32,5.0,5.0,63,0.00,,,0.00,Wunderground v.1.15,2014-07-24 14:30:00,
2014-07-24 11:34:00,63.3,50.5,30.18,NE,34,5.0,5.0,63,0.00,,,0.00,Wunderground v.1.15,2014-07-24 14:34:00,
2014-07-24 11:40:00,63.5,50.2,30.18,NE,53,5.0,9.0,62,0.00,,,0.00,Wunderground v.1.15,2014-07-24 14:40:00,
2014-07-24 11:45:00,63.5,50.2,30.18,NNE,27,5.0,9.0,62,0.00,,,0.00,Wunderground v.1.15,2014-07-24 14:45:00,
2014-07-24 11:49:00,63.0,50.2,30.18,NE,37,6.0,6.0,63,0.00,,,0.00,Wunderground v.1.15,2014-07-24 14:49:00,
2014-07-24 11:54:00,63.6,50.3,30.18,NE,50,5.0,6.0,62,0.00,,,0.00,Wunderground v.1.15,2014-07-24 14:54:00,
2014-07-24 11:59:00,63.6,50.8,30.18,NNE,18,4.0,4.0,63,0.00,,,0.00,Wunderground v.1.15,2014-07-24 14:59:00,
2014-07-24 12:05:00,64.0,49.8,30.18,North,8,5.0,7.0,60,0.00,,,0.00,Wunderground v.1.15,2014-07-24 15:05:00,
2014-07-24 12:10:00,64.1,49.9,30.18,NE,35,5.0,5.0,60,0.00,,,0.00,Wunderground v.1.15,2014-07-24 15:10:00,
2014-07-24 12:15:00,64.5,50.3,30.18,NE,43,5.0,5.0,60,0.00,,,0.00,Wunderground v.1.15,2014-07-24 15:15:00,
2014-07-24 12:20:00,64.7,51.4,30.18,East,90,5.0,5.0,62,0.00,,,0.00,Wunderground v.1.15,2014-07-24 15:20:00,
2014-07-24 12:24:00,64.9,50.7,30.18,NNE,16,6.0,9.0,60,0.00,,,0.00,Wunderground v.1.15,2014-07-24 15:24:00,
2014-07-24 12:29:00,64.9,50.2,30.18,NNE,22,6.0,7.0,59,0.00,,,0.00,Wunderground v.1.15,2014-07-24 15:29:00,
2014-07-24 12:35:00,64.9,49.8,30.18,NE,48,6.0,7.0,58,0.00,,,0.00,Wunderground v.1.15,2014-07-24 15:35:00,
2014-07-24 12:39:00,64.8,49.7,30.19,NNE,19,6.0,7.0,58,0.00,,,0.00,Wunderground v.1.15,2014-07-24 15:39:00,
2014-07-24 12:45:00,64.8,50.1,30.19,ENE,60,5.0,7.0,59,0.00,,,0.00,Wunderground v.1.15,2014-07-24 15:45:00,
2014-07-24 12:55:00,65.4,49.8,30.18,NNE,20,6.0,6.0,57,0.00,,,0.00,Wunderground v.1.15,2014-07-24 15:55:00,
2014-07-24 13:00:00,65.6,50.4,30.18,ENE,62,5.0,5.0,58,0.00,,,0.00,Wunderground v.1.15,2014-07-24 16:00:00,
2014-07-24 13:04:00,66.0,50.3,30.18,NE,36,5.0,5.0,57,0.00,,,0.00,Wunderground v.1.15,2014-07-24 16:04:00,
2014-07-24 13:09:00,66.6,51.8,30.19,SE,125,5.0,5.0,59,0.00,,,0.00,Wunderground v.1.15,2014-07-24 16:09:00,
2014-07-24 13:15:00,66.7,51.0,30.19,ENE,58,5.0,7.0,57,0.00,,,0.00,Wunderground v.1.15,2014-07-24 16:15:00,
2014-07-24 13:20:00,66.1,50.4,30.19,NNE,30,4.0,4.0,57,0.00,,,0.00,Wunderground v.1.15,2014-07-24 16:20:00,
2014-07-24 13:25:00,65.8,50.1,30.18,ENE,66,4.0,4.0,57,0.00,,,0.00,Wunderground v.1.15,2014-07-24 16:25:00,
2014-07-24 13:30:00,66.2,50.5,30.19,NE,43,3.0,4.0,57,0.00,,,0.00,Wunderground v.1.15,2014-07-24 16:30:00,
2014-07-24 13:39:00,67.0,52.2,30.18,East,88,3.0,5.0,59,0.00,,,0.00,Wunderground v.1.15,2014-07-24 16:39:00,
2014-07-24 13:45:00,67.5,51.2,30.18,NE,41,3.0,5.0,56,0.00,,,0.00,Wunderground v.1.15,2014-07-24 16:45:00,
2014-07-24 13:49:00,67.2,51.9,30.18,NNE,12,3.0,4.0,58,0.00,,,0.00,Wunderground v.1.15,2014-07-24 16:49:00,
2014-07-24 13:54:00,67.2,51.0,30.18,NNE,17,4.0,4.0,56,0.00,,,0.00,Wunderground v.1.15,2014-07-24 16:54:00,
2014-07-24 14:00:00,67.2,51.0,30.18,NNE,25,5.0,5.0,56,0.00,,,0.00,Wunderground v.1.15,2014-07-24 17:00:00,
2014-07-24 14:05:00,67.8,50.0,30.18,NNE,19,5.0,5.0,53,0.00,,,0.00,Wunderground v.1.15,2014-07-24 17:05:00,
2014-07-24 14:09:00,67.8,50.0,30.18,NE,41,5.0,5.0,53,0.00,,,0.00,Wunderground v.1.15,2014-07-24 17:09:00,
2014-07-24 14:14:00,67.7,49.4,30.18,NNE,31,4.0,5.0,52,0.00,,,0.00,Wunderground v.1.15,2014-07-24 17:14:00,
2014-07-24 14:20:00,67.5,50.8,30.18,ENE,57,4.0,8.0,55,0.00,,,0.00,Wunderground v.1.15,2014-07-24 17:20:00,
2014-07-24 14:25:00,68.0,51.2,30.18,NE,52,5.0,8.0,55,0.00,,,0.00,Wunderground v.1.15,2014-07-24 17:25:00,
2014-07-24 14:30:00,68.4,50.1,30.18,ENE,58,5.0,5.0,52,0.00,,,0.00,Wunderground v.1.15,2014-07-24 17:30:00,
2014-07-24 14:34:00,68.4,50.6,30.18,ENE,57,4.0,12.0,53,0.00,,,0.00,Wunderground v.1.15,2014-07-24 17:34:00,
2014-07-24 14:39:00,68.3,49.5,30.18,NNE,29,4.0,4.0,51,0.00,,,0.00,Wunderground v.1.15,2014-07-24 17:39:00,
2014-07-24 14:44:00,68.4,50.6,30.18,NNE,16,4.0,4.0,53,0.00,,,0.00,Wunderground v.1.15,2014-07-24 17:44:00,
2014-07-24 14:50:00,68.5,49.7,30.18,NNE,25,3.0,3.0,51,0.00,,,0.00,Wunderground v.1.15,2014-07-24 17:50:00,
2014-07-24 14:55:00,69.1,50.2,30.18,NNE,29,3.0,3.0,51,0.00,,,0.00,Wunderground v.1.15,2014-07-24 17:55:00,
2014-07-24 14:59:00,69.6,51.7,30.18,ENE,72,3.0,5.0,53,0.00,,,0.00,Wunderground v.1.15,2014-07-24 17:59:00,
2014-07-24 15:10:00,69.8,49.8,30.18,NE,41,4.0,5.0,49,0.00,,,0.00,Wunderground v.1.15,2014-07-24 18:10:00,
2014-07-24 15:15:00,70.0,50.0,30.18,NE,36,5.0,5.0,49,0.00,,,0.00,Wunderground v.1.15,2014-07-24 18:15:00,
2014-07-24 15:20:00,70.0,50.0,30.17,ENE,64,4.0,4.0,49,0.00,,,0.00,Wunderground v.1.15,2014-07-24 18:20:00,
2014-07-24 15:25:00,70.1,50.6,30.17,ENE,78,3.0,5.0,50,0.00,,,0.00,Wunderground v.1.15,2014-07-24 18:25:00,
2014-07-24 15:30:00,70.3,48.5,30.17,NNE,25,3.0,3.0,46,0.00,,,0.00,Wunderground v.1.15,2014-07-24 18:30:00,
2014-07-24 15:35:00,70.7,50.6,30.17,NE,50,2.0,3.0,49,0.00,,,0.00,Wunderground v.1.15,2014-07-24 18:35:00,
2014-07-24 15:40:00,70.6,48.8,30.17,NNE,25,2.0,5.0,46,0.00,,,0.00,Wunderground v.1.15,2014-07-24 18:40:00,
2014-07-24 15:45:00,70.6,49.4,30.16,NW,320,3.0,5.0,47,0.00,,,0.00,Wunderground v.1.15,2014-07-24 18:45:00,
2014-07-24 15:55:00,71.3,50.6,30.17,NE,50,2.0,2.0,48,0.00,,,0.00,Wunderground v.1.15,2014-07-24 18:55:00,
2014-07-24 16:00:00,71.7,49.8,30.16,WNW,292,2.0,2.0,46,0.00,,,0.00,Wunderground v.1.15,2014-07-24 19:00:00,
2014-07-24 16:05:00,71.5,49.0,30.16,NNE,31,3.0,3.0,45,0.00,,,0.00,Wunderground v.1.15,2014-07-24 19:05:00,
2014-07-24 16:10:00,71.1,49.8,30.16,NE,52,4.0,8.0,47,0.00,,,0.00,Wunderground v.1.15,2014-07-24 19:10:00,
2014-07-24 16:14:00,71.3,49.4,30.16,North,350,4.0,8.0,46,0.00,,,0.00,Wunderground v.1.15,2014-07-24 19:14:00,
2014-07-24 16:19:00,71.5,50.2,30.16,ESE,119,3.0,6.0,47,0.00,,,0.00,Wunderground v.1.15,2014-07-24 19:19:00,
2014-07-24 16:25:00,71.9,49.4,30.16,ENE,64,4.0,6.0,45,0.00,,,0.00,Wunderground v.1.15,2014-07-24 19:25:00,
2014-07-24 16:30:00,71.9,50.0,30.16,NE,48,4.0,4.0,46,0.00,,,0.00,Wunderground v.1.15,2014-07-24 19:30:00,
2014-07-24 16:35:00,71.8,50.5,30.16,NE,54,4.0,4.0,47,0.00,,,0.00,Wunderground v.1.15,2014-07-24 19:35:00,
2014-07-24 16:40:00,71.7,48.0,30.16,NW,308,4.0,4.0,43,0.00,,,0.00,Wunderground v.1.15,2014-07-24 19:40:00,
2014-07-24 16:45:00,71.9,48.2,30.15,ENE,69,4.0,5.0,43,0.00,,,0.00,Wunderground v.1.15,2014-07-24 19:45:00,
2014-07-24 16:49:00,71.7,49.2,30.16,ENE,63,4.0,5.0,45,0.00,,,0.00,Wunderground v.1.15,2014-07-24 19:49:00,
2014-07-24 16:54:00,72.2,50.8,30.15,NE,52,3.0,5.0,47,0.00,,,0.00,Wunderground v.1.15,2014-07-24 19:54:00,
2014-07-24 17:00:00,72.5,50.5,30.15,NE,44,2.0,4.0,46,0.00,,,0.00,Wunderground v.1.15,2014-07-24 20:00:00,
2014-07-24 17:15:00,73.2,48.7,30.15,NE,46,3.0,3.0,42,0.00,,,0.00,Wunderground v.1.15,2014-07-24 20:15:00,
2014-07-24 17:25:00,73.2,49.4,30.14,NE,37,3.0,3.0,43,0.00,,,0.00,Wunderground v.1.15,2014-07-24 20:25:00,
2014-07-24 17:30:00,73.7,49.8,30.14,North,360,3.0,4.0,43,0.00,,,0.00,Wunderground v.1.15,2014-07-24 20:30:00,
2014-07-24 17:35:00,73.5,49.6,30.14,North,360,2.0,3.0,43,0.00,,,0.00,Wunderground v.1.15,2014-07-24 20:35:00,
2014-07-24 17:40:00,74.0,50.1,30.13,NNW,339,2.0,3.0,43,0.00,,,0.00,Wunderground v.1.15,2014-07-24 20:40:00,
2014-07-24 17:45:00,73.9,51.2,30.13,NNE,25,2.0,3.0,45,0.00,,,0.00,Wunderground v.1.15,2014-07-24 20:45:00,
2014-07-24 17:50:00,73.7,50.4,30.14,NNE,25,3.0,3.0,44,0.00,,,0.00,Wunderground v.1.15,2014-07-24 20:50:00,
2014-07-24 17:55:00,73.1,50.5,30.14,NE,35,4.0,4.0,45,0.00,,,0.00,Wunderground v.1.15,2014-07-24 20:55:00,
2014-07-24 18:00:00,73.2,50.0,30.14,NNE,14,3.0,3.0,44,0.00,,,0.00,Wunderground v.1.15,2014-07-24 21:00:00,
2014-07-24 18:05:00,73.7,49.2,30.14,NNE,13,2.0,3.0,42,0.00,,,0.00,Wunderground v.1.15,2014-07-24 21:05:00,
2014-07-24 18:10:00,73.4,50.2,30.13,NNE,26,2.0,2.0,44,0.00,,,0.00,Wunderground v.1.15,2014-07-24 21:10:00,
2014-07-24 18:15:00,73.5,50.9,30.13,NE,46,2.0,5.0,45,0.00,,,0.00,Wunderground v.1.15,2014-07-24 21:15:00,
2014-07-24 18:20:00,73.6,51.5,30.13,North,4,2.0,3.0,46,0.00,,,0.00,Wunderground v.1.15,2014-07-24 21:20:00,
2014-07-24 18:25:00,73.7,50.4,30.13,NNE,13,2.0,3.0,44,0.00,,,0.00,Wunderground v.1.15,2014-07-24 21:25:00,
2014-07-24 18:30:00,73.7,52.2,30.13,West,280,2.0,2.0,47,0.00,,,0.00,Wunderground v.1.15,2014-07-24 21:30:00,
2014-07-24 18:35:00,74.0,54.7,30.13,NW,318,3.0,4.0,51,0.00,,,0.00,Wunderground v.1.15,2014-07-24 21:35:00,
2014-07-24 18:40:00,73.6,54.9,30.13,NNW,335,3.0,7.0,52,0.00,,,0.00,Wunderground v.1.15,2014-07-24 21:40:00,
2014-07-24 18:45:00,73.3,55.6,30.13,WSW,241,4.0,7.0,54,0.00,,,0.00,Wunderground v.1.15,2014-07-24 21:45:00,
2014-07-24 18:50:00,74.2,56.0,30.13,SW,225,3.0,3.0,53,0.00,,,0.00,Wunderground v.1.15,2014-07-24 21:50:00,
2014-07-24 18:55:00,73.9,56.2,30.13,WNW,294,4.0,4.0,54,0.00,,,0.00,Wunderground v.1.15,2014-07-24 21:55:00,
2014-07-24 19:00:00,73.0,56.4,30.13,NW,310,5.0,5.0,56,0.00,,,0.00,Wunderground v.1.15,2014-07-24 22:00:00,
2014-07-24 19:05:00,72.1,56.0,30.13,WNW,291,5.0,8.0,57,0.00,,,0.00,Wunderground v.1.15,2014-07-24 22:05:00,
2014-07-24 19:20:00,71.4,56.8,30.13,WSW,253,5.0,8.0,60,0.00,,,0.00,Wunderground v.1.15,2014-07-24 22:20:00,
2014-07-24 19:25:00,71.5,56.9,30.13,SW,235,6.0,6.0,60,0.00,,,0.00,Wunderground v.1.15,2014-07-24 22:25:00,
2014-07-24 19:30:00,71.2,56.6,30.13,WNW,285,6.0,6.0,60,0.00,,,0.00,Wunderground v.1.15,2014-07-24 22:30:00,
2014-07-24 19:35:00,71.3,57.2,30.13,SW,226,5.0,6.0,61,0.00,,,0.00,Wunderground v.1.15,2014-07-24 22:35:00,
2014-07-24 19:40:00,71.2,57.1,30.13,West,260,5.0,6.0,61,0.00,,,0.00,Wunderground v.1.15,2014-07-24 22:40:00,
2014-07-24 19:45:00,70.7,56.1,30.13,WNW,291,4.0,5.0,60,0.00,,,0.00,Wunderground v.1.15,2014-07-24 22:45:00,
2014-07-24 19:50:00,70.6,56.9,30.13,WSW,245,4.0,8.0,62,0.00,,,0.00,Wunderground v.1.15,2014-07-24 22:50:00,
2014-07-24 19:55:00,70.5,56.4,30.13,WSW,241,5.0,5.0,61,0.00,,,0.00,Wunderground v.1.15,2014-07-24 22:55:00,
2014-07-24 20:00:00,70.4,56.8,30.13,West,264,5.0,5.0,62,0.00,,,0.00,Wunderground v.1.15,2014-07-24 23:00:00,
2014-07-24 20:05:00,70.2,57.4,30.13,WSW,247,4.0,5.0,64,0.00,,,0.00,Wunderground v.1.15,2014-07-24 23:05:00,
2014-07-24 20:10:00,70.1,57.4,30.13,WSW,239,4.0,5.0,64,0.00,,,0.00,Wunderground v.1.15,2014-07-24 23:10:00,
2014-07-24 20:20:00,70.1,57.8,30.13,WSW,243,4.0,4.0,65,0.00,,,0.00,Wunderground v.1.15,2014-07-24 23:20:00,
2014-07-24 20:25:00,69.9,58.0,30.13,WSW,239,4.0,4.0,66,0.00,,,0.00,Wunderground v.1.15,2014-07-24 23:25:00,
2014-07-24 20:30:00,69.7,58.3,30.13,WSW,242,4.0,4.0,67,0.00,,,0.00,Wunderground v.1.15,2014-07-24 23:30:00,
2014-07-24 20:35:00,69.4,58.8,30.13,SW,231,3.0,4.0,69,0.00,,,0.00,Wunderground v.1.15,2014-07-24 23:35:00,
2014-07-24 20:40:00,69.0,58.8,30.13,SW,235,3.0,3.0,70,0.00,,,0.00,Wunderground v.1.15,2014-07-24 23:40:00,
2014-07-24 20:45:00,68.7,58.9,30.13,SW,233,3.0,4.0,71,0.00,,,0.00,Wunderground v.1.15,2014-07-24 23:45:00,
2014-07-24 20:50:00,68.3,58.9,30.12,SW,233,3.0,3.0,72,0.00,,,0.00,Wunderground v.1.15,2014-07-24 23:50:00,
2014-07-24 20:55:00,68.0,59.0,30.12,SW,236,2.0,3.0,73,0.00,,,0.00,Wunderground v.1.15,2014-07-24 23:55:00,
2014-07-24 21:00:00,67.8,58.8,30.12,WSW,237,2.0,3.0,73,0.00,,,0.00,Wunderground v.1.15,2014-07-25 00:00:00,
2014-07-24 21:05:00,67.5,58.9,30.13,WSW,239,2.0,3.0,74,0.00,,,0.00,Wunderground v.1.15,2014-07-25 00:05:00,
2014-07-24 21:10:00,67.1,58.9,30.12,WSW,239,2.0,2.0,75,0.00,,,0.00,Wunderground v.1.15,2014-07-25 00:10:00,
2014-07-24 21:15:00,66.6,59.2,30.12,WSW,239,2.0,3.0,77,0.00,,,0.00,Wunderground v.1.15,2014-07-25 00:15:00,
2014-07-24 21:20:00,66.2,58.8,30.12,WSW,239,2.0,2.0,77,0.00,,,0.00,Wunderground v.1.15,2014-07-25 00:20:00,
2014-07-24 21:25:00,65.8,58.7,30.12,WSW,239,2.0,2.0,78,0.00,,,0.00,Wunderground v.1.15,2014-07-25 00:25:00,
2014-07-24 21:30:00,65.5,58.8,30.12,WSW,239,2.0,2.0,79,0.00,,,0.00,Wunderground v.1.15,2014-07-25 00:30:00,
2014-07-24 21:35:00,65.2,58.9,30.12,WSW,239,2.0,2.0,80,0.00,,,0.00,Wunderground v.1.15,2014-07-25 00:35:00,
2014-07-24 21:40:00,64.8,58.8,30.12,WSW,239,1.0,2.0,81,0.00,,,0.00,Wunderground v.1.15,2014-07-25 00:40:00,
2014-07-24 21:45:00,64.5,58.5,30.12,WSW,239,1.0,2.0,81,0.00,,,0.00,Wunderground v.1.15,2014-07-25 00:45:00,
2014-07-24 21:50:00,64.2,58.6,30.12,WSW,239,1.0,3.0,82,0.00,,,0.00,Wunderground v.1.15,2014-07-25 00:50:00,
2014-07-24 21:55:00,63.9,58.3,30.12,SW,227,2.0,3.0,82,0.00,,,0.00,Wunderground v.1.15,2014-07-25 00:55:00,
2014-07-24 22:00:00,63.6,58.3,30.12,SW,229,3.0,3.0,83,0.00,,,0.00,Wunderground v.1.15,2014-07-25 01:00:00,
2014-07-24 22:05:00,63.3,58.0,30.12,SW,231,3.0,3.0,83,0.00,,,0.00,Wunderground v.1.15,2014-07-25 01:05:00,
2014-07-24 22:10:00,63.1,58.2,30.12,WSW,237,3.0,4.0,84,0.00,,,0.00,Wunderground v.1.15,2014-07-25 01:10:00,
2014-07-24 22:15:00,63.0,58.1,30.12,WSW,240,4.0,4.0,84,0.00,,,0.00,Wunderground v.1.15,2014-07-25 01:15:00,
2014-07-24 22:20:00,63.1,58.2,30.12,SW,233,4.0,4.0,84,0.00,,,0.00,Wunderground v.1.15,2014-07-25 01:20:00,
2014-07-24 22:25:00,62.9,58.0,30.13,WSW,240,3.0,4.0,84,0.00,,,0.00,Wunderground v.1.15,2014-07-25 01:25:00,
2014-07-24 22:30:00,62.8,58.2,30.13,SW,231,4.0,5.0,85,0.00,,,0.00,Wunderground v.1.15,2014-07-25 01:30:00,
2014-07-24 22:35:00,63.0,58.4,30.12,WSW,239,5.0,5.0,85,0.00,,,0.00,Wunderground v.1.15,2014-07-25 01:35:00,
2014-07-24 22:40:00,63.1,58.2,30.13,WSW,241,5.0,5.0,84,0.00,,,0.00,Wunderground v.1.15,2014-07-25 01:40:00,
2014-07-24 22:45:00,63.1,58.2,30.13,WSW,256,4.0,5.0,84,0.00,,,0.00,Wunderground v.1.15,2014-07-25 01:45:00,
2014-07-24 22:50:00,63.1,58.2,30.13,WSW,246,4.0,4.0,84,0.00,,,0.00,Wunderground v.1.15,2014-07-25 01:50:00,
2014-07-24 22:55:00,62.9,58.3,30.13,WSW,249,3.0,4.0,85,0.00,,,0.00,Wunderground v.1.15,2014-07-25 01:55:00,
2014-07-24 23:00:00,62.9,58.3,30.13,WSW,245,4.0,4.0,85,0.00,,,0.00,Wunderground v.1.15,2014-07-25 02:00:00,
2014-07-24 23:05:00,62.9,58.3,30.13,WSW,240,4.0,4.0,85,0.00,,,0.00,Wunderground v.1.15,2014-07-25 02:05:00,
2014-07-24 23:10:00,62.6,58.0,30.14,WSW,240,3.0,3.0,85,0.00,,,0.00,Wunderground v.1.15,2014-07-25 02:10:00,
2014-07-24 23:15:00,62.1,57.5,30.14,WSW,240,3.0,3.0,85,0.00,,,0.00,Wunderground v.1.15,2014-07-25 02:15:00,
2014-07-24 23:20:00,61.8,57.6,30.14,WSW,241,3.0,3.0,86,0.00,,,0.00,Wunderground v.1.15,2014-07-25 02:20:00,
2014-07-24 23:25:00,61.5,57.3,30.14,WSW,241,3.0,3.0,86,0.00,,,0.00,Wunderground v.1.15,2014-07-25 02:25:00,
2014-07-24 23:30:00,61.4,57.5,30.14,WSW,240,4.0,4.0,87,0.00,,,0.00,Wunderground v.1.15,2014-07-25 02:30:00,
2014-07-24 23:35:00,61.3,57.4,30.14,WSW,241,3.0,4.0,87,0.00,,,0.00,Wunderground v.1.15,2014-07-25 02:35:00,
2014-07-24 23:40:00,61.3,57.7,30.14,WSW,246,3.0,3.0,88,0.00,,,0.00,Wunderground v.1.15,2014-07-25 02:40:00,
2014-07-24 23:45:00,61.2,57.6,30.14,WSW,246,3.0,4.0,88,0.00,,,0.00,Wunderground v.1.15,2014-07-25 02:45:00,